Stations météo

réclame
Mon MeteoGroup
Abbeville, France (7005): Température de l'air & dewpoint: 20.08.2019 02:00:00 - 26.08.2019 02:00:00 (CEST)Abbeville, France (7005): Température de l'air 5cm: 20.08.2019 02:00:00 - 26.08.2019 02:00:00 (CEST)Abbeville, France (7005): Température de l'air -20cm & Température de l'air -100cm: 20.08.2019 02:00:00 - 26.08.2019 02:00:00 (CEST)Abbeville, France (7005): Vitesse du vent & gusts: 20.08.2019 02:00:00 - 26.08.2019 02:00:00 (CEST)Abbeville, France (7005): Direction du vent: 20.08.2019 02:00:00 - 26.08.2019 02:00:00 (CEST)Abbeville, France (7005): reduced air pressure: 20.08.2019 02:00:00 - 26.08.2019 02:00:00 (CEST)Abbeville, France (7005): visibility: 20.08.2019 02:00:00 - 26.08.2019 02:00:00 (CEST)Abbeville, France (7005): Ensoleillement: 20.08.2019 02:00:00 - 26.08.2019 02:00:00 (CEST)Abbeville, France (7005): Quantités de précipitations: 20.08.2019 02:00:00 - 26.08.2019 02:00:00 (CEST)
Date & Time tt [°C] td [°C] tt 5cm [°C] tt -20cm [°C] tt -100cm [°C] ff [km/h] ff [knt] fx [km/h] fx [knt] dd ppp [hPa] vv [km] sd [min] rr [mm]
26.08.2019 02:00:00 18,9 13,7 16,4 21,9 17,0 9 5 12 6 ENE 1018,9 20 0 0,0
26.08.2019 01:00:00 19,7 13,6 17,5 22,2 17,0 9 5 19 10 ENE 1019,1 20 0 0,0
26.08.2019 00:00:00 20,7 13,6 19,1 22,6 17,0 12 7 19 10 ENE 1019,1 20 0 0,0
25.08.2019 23:00:00 21,6 13,8 19,9 22,9 17,0 14 8 24 13 ENE 1019,1 20 0 0,0
25.08.2019 22:00:00 23,1 13,6 19,8 23,1 17,0 13 7 18 10 NE 1018,8 20 0 0,0
25.08.2019 21:00:00 24,3 12,9 20,9 23,3 17,0 8 4 10 6 NE 1018,2 20 25 0,0
25.08.2019 20:00:00 26,9 13,6 27,5 23,2 16,9 7 4 12 6 NNE 1018,0 20 49 0,0
25.08.2019 19:00:00 29,7 11,2 33,6 23,0 17,0 8 4 14 8 NE 1017,8 20 60 0,0
25.08.2019 18:00:00 30,6 11,0 34,7 22,6 16,9 6 4 16 9 NE 1017,8 20 60 0,0
25.08.2019 17:00:00 31,3 10,6 36,7 22,1 17,0 5 3 11 6 N 1017,8 20 60 0,0
25.08.2019 16:00:00 30,8 10,2 35,2 21,5 17,0 5 3 17 9 ESE 1018,0 20 60 0,0
25.08.2019 15:00:00 30,6 11,5 36,0 20,7 16,9 4 2 14 8 SE 1018,2 20 60 0,0
25.08.2019 14:00:00 29,9 12,3 35,2 20,1 17,0 5 3 14 8 ESE 1018,3 20 60 0,0
25.08.2019 13:00:00 29,1 13,7 34,0 19,6 16,9 6 3 14 8 E 1018,3 20 60 0,0
25.08.2019 12:00:00 28,1 14,7 31,2 19,1 16,9 7 4 12 7 SSE 1018,6 20 60 0,0
25.08.2019 11:00:00 26,2 16,2 27,8 19,0 16,9 8 4 13 7 SE 1018,7 20 60 0,0
25.08.2019 10:00:00 23,1 16,9 23,5 19,0 16,9 6 4 11 6 SE 1018,5 20 57 0,0
25.08.2019 09:00:00 19,8 15,2 17,1 19,1 16,9 6 3 10 5 ESE 1018,3 20 29 0,0
25.08.2019 08:00:00 17,1 13,4 15,4 19,3 16,9 8 4 12 6 SE 1017,9 20 0 0,0
25.08.2019 07:00:00 16,5 12,6 15,6 19,5 16,9 8 4 11 6 ESE 1017,7 20 0 0,0
25.08.2019 06:00:00 16,8 12,9 15,5 19,7 16,9 6 3 9 5 SE 1017,5 20 0 0,0
25.08.2019 05:00:00 17,1 12,6 15,1 20,0 16,9 6 3 13 7 ESE 1017,6 20 0 0,0
25.08.2019 04:00:00 17,0 12,3 15,3 20,2 16,9 10 5 13 7 ESE 1017,5 20 0 0,0
25.08.2019 03:00:00 18,1 12,5 15,9 20,5 16,9 6 3 11 6 ESE 1017,5 20 0 0,0
25.08.2019 02:00:00 19,0 12,3 16,7 20,8 16,9 6 4 11 6 ESE 1017,6 20 0 0,0
25.08.2019 01:00:00 19,6 12,4 17,3 21,1 16,9 8 4 11 6 E 1017,7 20 0 0,0
25.08.2019 00:00:00 20,1 12,8 17,3 21,4 16,9 7 4 13 7 ESE 1017,7 20 0 0,0
24.08.2019 23:00:00 20,2 13,2 17,7 21,7 16,9 11 6 13 7 E 1017,6 20 0 0,0
24.08.2019 22:00:00 21,7 13,3 18,6 21,9 16,9 11 6 13 7 E 1017,5 20 0 0,0
24.08.2019 21:00:00 23,8 13,1 20,1 22,0 16,9 8 4 10 5 ENE 1017,3 20 27 0,0
24.08.2019 20:00:00 27,4 12,6 28,7 21,9 16,9 6 4 16 9 E 1017,0 20 58 0,0
24.08.2019 19:00:00 29,1 11,2 31,5 21,7 16,9 9 5 16 9 SE 1017,1 18 60 0,0
24.08.2019 18:00:00 29,3 12,7 32,8 21,3 16,9 7 4 19 10 E 1017,4 20 60 0,0
24.08.2019 17:00:00 29,5 10,6 33,9 20,8 16,9 10 5 19 10 SE 1017,7 20 60 0,0
24.08.2019 16:00:00 29,3 12,3 32,9 20,2 16,9 9 5 30 16 SE 1018,0 20 60 0,0
24.08.2019 15:00:00 28,9 11,5 31,8 19,5 16,9 14 7 29 15 SE 1018,4 20 60 0,0
24.08.2019 14:00:00 27,9 10,6 31,6 18,9 16,9 17 9 28 15 E 1018,7 20 60 0,0
24.08.2019 13:00:00 27,7 12,1 31,2 18,4 16,9 15 8 25 13 SE 1019,1 20 60 0,0
24.08.2019 12:00:00 26,0 13,8 28,8 18,0 16,9 8 4 16 9 SE 1019,7 20 60 0,0
24.08.2019 11:00:00 23,4 14,4 25,4 17,8 16,9 8 5 13 7 SE 1020,0 19 60 0,0
24.08.2019 10:00:00 19,9 15,1 21,0 17,7 16,9 6 3 13 7 SE 1020,2 18 60 0,0
24.08.2019 09:00:00 17,2 13,7 16,8 17,9 16,9 6 4 10 5 ESE 1020,3 11 58 0,0
24.08.2019 08:00:00 14,6 12,6 12,3 18,1 16,9 7 4 11 6 ESE 1020,1 9 0 0,0
24.08.2019 07:00:00 13,2 11,3 11,7 18,4 16,9 8 5 12 6 ESE 1020,3 9 0 0,0
24.08.2019 06:00:00 13,3 11,0 11,7 18,6 16,9 5 3 8 5 E 1020,4 12 0 0,0
24.08.2019 05:00:00 14,6 11,9 11,1 18,9 16,9 3 2 6 3 ESE 1020,6 14 0 0,0
24.08.2019 04:00:00 14,4 11,5 12,4 19,2 16,9 5 3 8 5 E 1020,8 17 0 0,0
24.08.2019 03:00:00 15,4 12,0 11,9 19,5 16,9 7 4 8 4 ENE 1021,0 20 0 0,0
24.08.2019 02:00:00 15,2 11,4 12,4 19,8 16,9 6 3 13 7 ENE 1021,4 20 0 0,0
24.08.2019 01:00:00 16,1 12,3 14,2 20,2 16,9 10 5 13 7 ENE 1021,6 20 0 0,0
24.08.2019 00:00:00 16,6 13,9 12,0 20,5 16,9 9 5 11 6 NE 1021,8 20 0 0,0
23.08.2019 23:00:00 16,5 14,1 12,6 20,9 16,9 2 1 8 5 N 1022,1 20 0 0,0
23.08.2019 22:00:00 17,2 13,9 13,9 21,1 16,9 6 4 10 5 N 1022,2 20 0 0,0
23.08.2019 21:00:00 19,7 13,6 17,9 21,3 16,9 9 5 16 9 NNW 1022,1 20 31 0,0
23.08.2019 20:00:00 23,7 13,3 25,7 21,2 16,9 9 5 18 10 NW 1022,0 20 55 0,0
23.08.2019 19:00:00 25,9 11,3 29,2 20,9 16,9 10 5 16 8 WNW 1021,9 20 60 0,0
23.08.2019 18:00:00 25,9 9,7 30,8 20,5 16,9 10 5 21 12 ENE 1022,6 20 60 0,0
23.08.2019 17:00:00 26,2 9,5 31,7 19,9 16,9 6 4 18 10 NE 1023,0 20 60 0,0
23.08.2019 16:00:00 25,8 9,2 31,5 19,2 16,9 5 3 17 9 ENE 1023,7 20 60 0,0
23.08.2019 15:00:00 25,5 10,1 32,0 18,4 16,9 5 3 15 8 SSW 1024,1 20 60 0,0
23.08.2019 14:00:00 24,5 10,4 30,2 17,7 16,9 3 1 11 6 ESE 1024,6 20 60 0,0
23.08.2019 13:00:00 23,0 8,7 28,0 17,1 16,9 5 3 10 6 E 1025,2 20 60 0,0
23.08.2019 12:00:00 21,3 12,4 25,2 16,7 16,9 3 2 9 5 E 1025,8 20 60 0,0
23.08.2019 11:00:00 19,7 13,4 23,6 16,5 16,9 4 2 10 5 ESE 1025,9 20 60 0,0
23.08.2019 10:00:00 17,1 12,6 19,7 16,5 16,9 4 2 9 5 ESE 1026,1 20 60 0,2
23.08.2019 09:00:00 13,6 12,7 11,2 16,6 16,9 2 1 9 5 SE 1026,3 20 36 0,0
23.08.2019 08:00:00 10,7 9,8 8,8 16,9 16,9 7 4 10 5 SE 1026,2 15 6 0,0
23.08.2019 07:00:00 9,7 8,6 8,5 17,2 16,9 8 4 10 5 SE 1026,0 11 0 0,0
23.08.2019 06:00:00 10,5 9,6 8,8 17,4 16,9 6 3 12 6 ESE 1026,1 13 0 0,0
23.08.2019 05:00:00 10,4 9,2 6,7 17,8 16,9 5 3 7 4 ESE 1026,2 14 0 0,0
23.08.2019 04:00:00 10,4 8,8 7,6 18,1 16,9 4 2 8 5 E 1026,4 14 0 0,0
23.08.2019 03:00:00 11,6 10,2 10,2 18,4 16,9 6 3 11 6 SE 1026,5 18 0 0,0
23.08.2019 02:00:00 11,8 10,0 9,4 18,8 16,9 4 2 8 4 SSE 1026,8 20 0 0,0
23.08.2019 01:00:00 12,6 10,3 11,0 19,1 16,9 6 3 9 5 SSE 1026,7 20 0 0,0
23.08.2019 00:00:00 13,8 11,1 8,7 19,5 17,0 4 2 6 3 SSE 1026,9 20 0 0,0
22.08.2019 23:00:00 13,9 10,9 8,9 19,9 16,9 3 2 4 2 W 1026,9 20 0 0,0
22.08.2019 22:00:00 14,7 10,7 10,2 20,1 16,9 3 2 6 3 W 1026,8 20 0 0,0
22.08.2019 21:00:00 16,6 11,1 14,5 20,3 16,9 4 2 19 10 WNW 1026,4 20 33 0,0
22.08.2019 20:00:00 18,9 11,5 20,6 20,4 16,9 13 7 25 14 WNW 1026,2 20 60 0,0
22.08.2019 19:00:00 20,2 11,4 23,4 20,3 16,9 17 9 28 15 WNW 1025,8 20 60 0,0
22.08.2019 18:00:00 21,0 9,9 24,9 20,0 16,9 21 11 29 16 WNW 1026,0 20 60 0,0
22.08.2019 17:00:00 21,5 11,5 26,3 19,5 16,9 16 9 34 18 WNW 1026,1 20 60 0,0
22.08.2019 16:00:00 21,6 11,0 26,9 19,0 16,9 16 9 31 17 NW 1026,2 20 60 0,0
22.08.2019 15:00:00 21,8 12,4 26,8 18,3 16,9 16 9 27 14 WNW 1026,3 20 60 0,0
22.08.2019 14:00:00 22,1 11,8 26,5 17,7 16,9 11 6 24 13 WNW 1026,6 20 60 0,0
22.08.2019 13:00:00 21,3 12,2 27,2 17,1 16,9 11 6 25 13 WNW 1026,7 20 60 0,0
22.08.2019 12:00:00 20,6 10,7 26,8 16,7 16,9 6 3 13 7 W 1027,0 20 60 0,0
22.08.2019 11:00:00 19,5 12,3 23,2 16,5 16,9 3 1 10 6 N 1026,8 20 60 0,0
22.08.2019 10:00:00 16,7 15,6 19,0 16,5 16,9 0 0 5 3 N 1026,8 17 60 0,0
22.08.2019 09:00:00 13,8 13,2 12,9 16,6 16,9 0 0 9 5 N 1026,6 14 60 0,0
22.08.2019 08:00:00 11,5 10,9 9,1 16,9 17,0 4 2 8 4 SSE 1026,5 10 2 0,2
22.08.2019 07:00:00 10,7 9,9 9,1 17,1 17,0 5 3 9 5 SSE 1026,1 7 0 0,0
22.08.2019 06:00:00 10,9 10,1 9,1 17,4 17,0 6 3 8 5 SSE 1025,9 10 0 0,0
22.08.2019 05:00:00 11,0 10,2 7,8 17,8 17,0 5 3 6 4 SE 1025,8 0,6 0 0,0
22.08.2019 04:00:00 12,0 11,1 7,4 18,1 17,0 3 1 6 3 NNE 1026,1 3,0 0 0,0
22.08.2019 03:00:00 11,9 10,8 7,8 18,4 17,0 4 2 6 4 NW 1026,2 8 0 0,0
22.08.2019 02:00:00 12,0 10,4 8,0 18,8 17,0 4 2 6 3 WNW 1026,4 14 0 0,0
22.08.2019 01:00:00 13,2 10,7 9,9 19,2 17,0 0 0 9 5 N 1026,3 20 0 0,0
22.08.2019 00:00:00 14,0 12,4 10,1 19,5 17,0 6 4 8 4 E 1026,5 20 0 0,0
21.08.2019 23:00:00 13,5 11,5 10,6 19,9 17,0 5 3 9 5 N 1026,7 19 0 0,0
21.08.2019 22:00:00 15,0 12,1 13,0 20,1 17,0 8 4 15 8 NNW 1026,6 19 0 0,0
21.08.2019 21:00:00 17,2 12,9 16,3 20,2 17,0 10 5 14 8 NW 1026,2 20 35 0,0
21.08.2019 20:00:00 20,1 12,6 22,4 20,1 17,0 11 6 21 12 NNW 1025,9 20 60 0,0
21.08.2019 19:00:00 22,2 6,8 25,9 19,9 17,0 6 3 9 5 E 1025,9 20 60 0,0
21.08.2019 18:00:00 22,4 6,2 27,3 19,4 17,0 6 3 14 8 ESE 1026,2 20 60 0,0
21.08.2019 17:00:00 22,4 7,8 28,2 18,9 17,0 4 2 13 7 ESE 1026,4 20 60 0,0
21.08.2019 16:00:00 22,2 8,0 25,8 18,2 17,0 4 2 16 8 ESE 1026,9 20 50 0,0
21.08.2019 15:00:00 21,7 7,1 27,4 17,4 17,0 4 2 14 8 ESE 1027,3 20 60 0,0
21.08.2019 14:00:00 20,9 8,5 26,4 16,7 17,0 4 2 16 9 SSE 1027,7 20 60 0,0
21.08.2019 13:00:00 20,4 10,2 25,6 16,2 17,0 5 3 20 11 S 1028,2 20 60 0,0
21.08.2019 12:00:00 19,2 11,5 21,9 15,7 17,0 5 3 11 6 S 1028,9 20 52 0,0
21.08.2019 11:00:00 18,1 13,8 20,5 15,5 17,0 4 2 10 5 SSE 1029,0 19 60 0,0
21.08.2019 10:00:00 15,7 13,4 16,0 15,5 17,0 5 3 9 5 SSE 1029,2 19 60 0,0
21.08.2019 09:00:00 12,7 11,4 12,1 15,6 17,0 8 4 10 5 SE 1029,1 20 60 0,0
21.08.2019 08:00:00 10,3 9,4 7,9 15,8 17,0 6 3 9 5 SE 1028,8 20 11 0,0
21.08.2019 07:00:00 8,8 7,7 7,8 16,1 17,0 6 3 10 5 SE 1028,6 17 0 0,2
21.08.2019 06:00:00 9,1 7,9 8,1 16,3 17,0 5 3 8 5 SE 1028,2 20 0 0,0
21.08.2019 05:00:00 9,8 8,4 8,5 16,6 17,0 5 3 11 6 SE 1028,0 20 0 0,0
21.08.2019 04:00:00 10,4 8,7 9,2 16,9 17,0 5 3 8 5 SSE 1028,2 20 0 0,0
21.08.2019 03:00:00 11,0 9,1 9,3 17,2 17,0 4 2 9 5 SSE 1028,0 20 0 0,0
21.08.2019 02:00:00 11,4 9,5 9,0 17,5 17,0 5 3 7 4 S 1028,2 20 0 0,0
21.08.2019 01:00:00 11,5 9,4 9,1 17,8 17,0 4 2 7 4 SSW 1028,2 20 0 0,0
21.08.2019 00:00:00 12,2 9,4 9,3 18,2 17,0 4 2 9 5 SSW 1028,1 20 0 0,0
20.08.2019 23:00:00 12,8 9,8 9,9 18,5 17,0 5 3 10 5 WSW 1027,9 20 0 0,0
20.08.2019 22:00:00 13,1 9,5 10,4 18,8 17,0 6 4 10 6 W 1027,5 20 0 0,0
20.08.2019 21:00:00 14,8 9,6 13,4 18,9 17,0 9 5 21 11 WNW 1027,1 20 37 0,0
20.08.2019 20:00:00 17,3 9,5 18,3 18,9 17,0 14 7 27 15 W 1026,6 20 60 0,0
20.08.2019 19:00:00 18,2 8,2 20,6 18,8 17,0 19 11 34 18 W 1026,1 20 60 0,0
20.08.2019 18:00:00 18,9 9,9 22,0 18,6 17,0 19 10 32 17 WNW 1025,9 20 60 0,0
20.08.2019 17:00:00 19,1 10,6 21,9 18,2 17,0 24 13 36 20 W 1025,5 20 57 0,0
20.08.2019 16:00:00 18,6 10,7 - 17,8 17,1 22 12 - - W 1025,1 - - -
20.08.2019 15:00:00 18,4 10,5 20,5 17,3 17,1 22 12 37 20 WNW 1025,1 20 29 0,0
20.08.2019 14:00:00 18,8 10,9 19,9 16,8 17,1 21 11 36 20 W 1024,5 20 55 0,0
20.08.2019 13:00:00 19,1 10,4 20,7 16,3 17,0 20 11 34 18 W 1024,2 20 54 0,0
20.08.2019 12:00:00 18,6 11,9 19,4 15,9 17,1 19 11 32 18 W 1023,9 20 51 0,0
20.08.2019 11:00:00 17,5 11,5 18,8 15,7 17,1 17 9 27 15 W 1023,8 20 46 0,0
20.08.2019 10:00:00 16,7 13,2 19,8 15,6 17,0 10 6 21 11 WSW 1023,4 20 60 0,0
20.08.2019 09:00:00 14,7 12,9 15,3 15,6 17,0 6 4 14 7 SSW 1023,1 20 58 0,0
20.08.2019 08:00:00 12,6 11,5 10,2 15,9 17,0 5 3 11 6 S 1022,7 20 12 0,0
20.08.2019 07:00:00 11,5 10,4 9,9 16,1 17,1 6 4 11 6 S 1022,1 19 0 0,0
20.08.2019 06:00:00 11,5 10,4 9,7 16,3 17,1 5 3 9 5 SSE 1021,4 20 0 0,0
20.08.2019 05:00:00 11,8 10,5 9,6 16,5 17,0 4 2 9 5 S 1021,5 20 0 0,0
20.08.2019 04:00:00 12,0 10,7 10,0 16,8 17,1 4 2 10 6 SSW 1021,4 20 0 0,0
20.08.2019 03:00:00 12,3 10,9 10,4 17,0 17,1 5 3 12 7 SSW 1021,6 20 0 0,0
20.08.2019 02:00:00 12,6 11,0 11,0 17,2 17,1 5 3 10 5 SSW 1021,4 19 0 0,0

tt = Température de l'air
td = dewpoint
tt 5cm = Température de l'air 5cm
tt -20cm = Température de l'air -20cm
tt -100cm = Température de l'air -100cm
ff = Vitesse du vent
fx = gusts
dd = Direction du vent
ppp = reduced air pressure
vv = visibility
sd = Ensoleillement
rr = Quantités de précipitations

stations d'obs. à proximité